Regional Weather Roundup
Issued by NWS

Home | Current Version | Previous Version | Text Only | Print | Product List | Glossary Off
Versions: 1 2 3 4 5 6 7 8 9 10 11 12 13 14 15 16 17 18 19 20 21 22 23 24 25 26 27 28 29 30

000
ASUS45 KGTF 031210
RWRMT
MONTANA HOURLY WEATHER ROUNDUP
NATIONAL WEATHER SERVICE GREAT FALLS MT
600 AM MDT SUN MAY 03 2015

NOTE: "FAIR" INDICATES FEW OR NO CLOUDS BELOW 12000 FEET WITH NO
SIGNIFICANT WEATHER AND/OR OBSTRUCTIONS TO VISIBILITY.

MTZ001>007-043-031300-
WEST OF THE DIVIDE

CITY           SKY/WX    TMP DP  RH WIND       PRES   REMARKS
KALISPELL      SUNNY     27  20  75 NW3       29.98R
MISSOULA       CLEAR     32  22  66 CALM      29.99R
BUTTE          CLEAR     26  17  68 SE3       30.00R
DEER LODGE       N/A     34  27  75 NW3       30.04R
EUREKA           N/A     25  19  80 CALM      30.05R
LIBBY            N/A     27  23  86 CALM      30.04R
$$

MTZ008-052>055-031300-
SOUTHWEST MONTANA

CITY           SKY/WX    TMP DP  RH WIND       PRES   REMARKS
BOZEMAN        MOCLDY    40  31  70 VRB6      29.98R
DILLON         CLEAR     38  26  62 NE8       29.96R
$$

MTZ009-010-012-014-046-048-049-054-031300-
EAST SLOPES AND CENTRAL MONTANA

CITY           SKY/WX    TMP DP  RH WIND       PRES   REMARKS
CUT BANK       PTCLDY    30  27  88 SW3       30.00S
GREAT FALLS    CLEAR     37  26  64 CALM      30.01R
MALMSTROM AFB  CLEAR     38  28  66 S2        30.02R
HELENA         CLEAR     40  28  62 W9        30.00S
$$

MTZ011-013-016-021-045-047-050-051-031300-
NORTH CENTRAL MONTANA

CITY           SKY/WX    TMP DP  RH WIND       PRES   REMARKS
HAVRE          CLOUDY    32  24  72 S3        30.03R
LEWISTOWN      MOCLDY    40  32  73 CALM      30.02R
CHINOOK          N/A     34  25  69 CALM      30.04R
FORT BENTON      N/A     37  27  65 CALM      30.03S
$$

MTZ017>020-022>042-056>058-061-062-031300-
EASTERN PLAINS

CITY           SKY/WX    TMP DP  RH WIND       PRES   REMARKS
BAKER          CLOUDY    48  34  58 N9        29.97R
BILLINGS       MOCLDY    44  33  65 N7        30.00S
GLASGOW        PTCLDY    35  29  78 NW5       29.98S
JORDAN           N/A     45  31  58 N8        29.99R
LIVINGSTON     PTCLDY    43  32  65 E12       29.99S
MILES CITY     MOCLDY    44  33  65 N9        29.97S
SIDNEY         MOCLDY    46  34  61 W8        29.96S
WOLF POINT     CLEAR     35  28  75 W5        29.99R
BIG TIMBER       N/A     43  34  70 N5        30.02S
FORSYTH          N/A     46  34  61 CALM      30.00R
PLENTYWOOD       N/A     36  30  80 NW8       29.96S WCI  29
POPLAR           N/A     34  30  86 S5        29.99R
$$

REGIONAL REPORTS...DAKOTAS

CITY           SKY/WX    TMP DP  RH WIND       PRES   REMARKS
WILLISTON      PTCLDY    41  33  73 E6        29.96R
MINOT          LGT RAIN  46  34  62 W16       29.89R
DICKINSON      CLOUDY    49  36  61 N8        29.93S
BEACH          FAIR      41  36  81 NW3       29.98R
CROSBY         FAIR      39  32  75 W12       29.95R WCI  32
WATFORD CITY   FAIR      45  36  70 NW8       29.93S
BISMARCK       LGT RAIN  53  39  59 NW10      29.91R
GRAND FORKS    MOCLDY    49  41  74 NW9       29.77R
FARGO          PTCLDY    49  41  74 N9        29.75R
BUFFALO SD       N/A     48  35  60 NE14      29.88R
RAPID CITY     MOCLDY    50  33  52 N25       29.87R
$$

REGIONAL REPORTS...WYOMING/IDAHO/WASHINGTON

CITY           SKY/WX    TMP DP  RH WIND       PRES   REMARKS
GILLETTE       PTCLDY    48  33  56 N9        29.94R
SHERIDAN       MOCLDY    45  36  70 W10       29.96S
BUFFALO WY     CLOUDY    49  35  58 NW9       29.99R
CODY           PTCLDY    43  36  75 N9        29.98R
YELLOWSTONE LA   N/A     27  22  81 NW3       30.03R
IDAHO FALLS    MOCLDY    51  32  48 SW3       29.91S
SALMON         PTCLDY    36  27  69 CALM      29.95R
BOISE          PTCLDY    48  34  58 S3        29.85R
SPOKANE        PTCLDY    44  24  45 NE5       29.97R
$$

REGIONAL REPORTS...ALBERTA

CITY           SKY/WX    TMP DP  RH WIND       PRES   REMARKS
EDMONTON       CLEAR     32  28  86 NW6       30.00R WCI  26
CALGARY        MOCLDY    32  25  74 SW6       30.04R WCI  26
LETHBRIDGE     MOCLDY    32  30  93 SW6       30.02R WCI  26
MEDICINE HAT   PTCLDY    30  27  86 SW3       30.04R
$$

REGIONAL REPORTS...SASKATCHEWAN

CITY           SKY/WX    TMP DP  RH WIND       PRES   REMARKS
SWIFT CURRENT  CLEAR     28  25  86 W13       29.99R WCI  18
REGINA         CLEAR     32  30  93 W10       29.93R WCI  24
SASKATOON      CLEAR     34  32  93 NW10      29.95R WCI  26
$$



USA.gov is the U.S. government's official web portal to all federal, state and local government web resources and services.